Gilbertsville, Kentucky
Current Conditions -  °F | °C
As of 7:15 PM on Saturday 22 Nov 2014 (Local Time) from KM25 Reporting Station
Overcast Overcast  
Wind Chill: 59°   Ceiling: 5000
Heat Index: 59°   Visibility: 10mi
Dew Point: 37°   Wind: 5mph
Humidity: 45%   Direction: 190°S
Pressure: 30.06"   Gusts: NA
Location:  37.02°N, 88.3°W
Report Text: KM25 230115Z AUTO 19004KT 10SM OVC050 15/03 A3006 RMK AO2
Loading
Personal Weather Stations






























Interactive Weather Map New forecast layout! Learn more

10-Day Weather Forecast

Advertisements
Track Severe Weather on mobile